EW6456 Weather Reports


Display with metric or nautical units.
time (UTC)temp
F
wind
direction
speed
MPH
gust
MPH
rain 1hr
in
rain 24hr
in
rain mn
in
humidity
%
barometer
mb
20260506044510 31 160 0.0 0.0 0.00 0.00 0.00 64 1021.9
20260506043002 33 39 0.0 0.0 0.00 0.00 0.00 57 1021.8
20260506041605 34 69 0.0 0.0 0.00 0.00 0.00 55 1021.7
20260506040056 35 123 0.0 0.0 0.00 0.00 0.00 55 1021.7
20260506034612 35 350 0.0 0.0 0.00 0.00 0.00 54 1021.6
20260506033052 36 259 0.0 0.0 0.00 0.00 0.00 53 1021.4
20260506031547 37 27 0.0 0.0 0.00 0.00 0.00 50 1021.2
20260506030047 38 83 0.0 0.0 0.00 0.00 0.00 47 1020.9
20260506024557 39 230 0.0 0.0 0.00 0.00 0.00 46 1020.7
20260506023041 40 159 0.0 0.0 0.00 0.00 0.00 45 1020.4
20260506021537 42 221 0.0 0.0 0.00 0.00 0.00 42 1020.2
20260506020035 43 217 0.0 0.0 0.00 0.00 0.00 41 1020.1
20260506014536 45 193 0.0 6.0 0.00 0.00 0.00 37 1019.9
20260506013041 45 262 0.0 8.0 0.00 0.00 0.00 36 1019.9
20260506011502 45 137 2.0 10.0 0.00 0.00 0.00 36 1019.9
20260506010006 46 346 0.0 13.0 0.00 0.00 0.00 35 1019.7
20260506004559 46 143 3.0 9.0 0.00 0.00 0.00 36 1019.7
20260506003059 46 339 2.0 12.0 0.00 0.00 0.00 35 1019.7
20260506001558 46 101 3.0 11.0 0.00 0.00 0.00 36 1019.6
20260506000101 46 313 6.0 16.0 0.00 0.00 0.00 35 1019.6
20260505234557 47 250 3.0 15.0 0.00 0.00 0.00 36 1019.5
20260505233055 47 308 5.0 16.0 0.00 0.00 0.00 35 1019.4
20260505231555 46 165 5.0 14.0 0.00 0.00 0.00 35 1019.3
20260505230104 47 120 4.0 18.0 0.00 0.00 0.00 34 1019.4
20260505224552 48 192 6.0 17.0 0.00 0.00 0.00 35 1019.3
20260505223056 47 206 8.0 20.0 0.00 0.00 0.00 36 1019.2
20260505221547 46 156 5.0 18.0 0.00 0.00 0.00 36 1019.2
20260505220047 46 345 6.0 15.0 0.00 0.00 0.00 37 1019.2
20260505214519 46 254 8.0 20.0 0.00 0.00 0.00 37 1019.2
20260505213016 46 38 8.0 19.0 0.00 0.00 0.00 39 1019.3
20260505211512 46 124 9.0 23.0 0.00 0.00 0.00 37 1019.3
20260505210011 45 118 7.0 17.0 0.00 0.00 0.00 38 1019.4
20260505204510 45 121 12.0 21.0 0.00 0.00 0.00 39 1019.4
20260505203009 46 297 1.0 17.0 0.00 0.00 0.00 38 1019.5
20260505201507 45 326 0.0 16.0 0.00 0.00 0.00 41 1019.5
20260505200006 44 104 2.0 16.0 0.00 0.00 0.00 43 1019.6
20260505194502 44 49 3.0 18.0 0.00 0.00 0.00 44 1019.7
20260505193003 43 124 0.0 13.0 0.00 0.00 0.00 43 1019.8
20260505191601 44 177 5.0 18.0 0.00 0.00 0.00 40 1019.9
20260505190058 43 243 3.0 11.0 0.00 0.00 0.00 43 1019.9
20260505184558 42 159 5.0 16.0 0.00 0.00 0.00 46 1019.9
20260505183101 44 116 4.0 13.0 0.00 0.00 0.00 44 1019.7
20260505181525 43 305 0.0 14.0 0.00 0.00 0.00 43 1019.7
20260505180024 42 57 1.0 12.0 0.00 0.00 0.00 45 1019.7
20260505174557 42 121 5.0 22.0 0.00 0.00 0.00 46 1019.7
20260505173053 42 113 3.0 21.0 0.00 0.00 0.00 50 1019.6
20260505171522 42 338 4.0 16.0 0.00 0.00 0.00 52 1019.7
20260505170026 40 319 2.0 12.0 0.00 0.00 0.00 54 1019.9
20260505164600 40 342 3.0 0.0 0.00 0.00 0.00 54 1019.8
20260505163055 41 91 4.0 17.0 0.00 0.00 0.00 51 1019.7
20260505161546 41 169 5.0 15.0 0.00 0.00 0.00 51 1019.6
20260505153104 41 259 2.0 16.0 0.00 0.00 0.00 55 1019.5
20260505151550 41 20 0.0 10.0 0.00 0.00 0.00 59 1019.6
20260505124527 28 54 0.0 0.0 0.00 0.00 0.00 82 1018.6
20260505123021 27 248 0.0 0.0 0.00 0.00 0.00 81 1018.2
20260505121520 28 45 0.0 0.0 0.00 0.00 0.00 76 1018.3
20260505120015 30 180 0.0 0.0 0.00 0.00 0.00 75 1018.2
20260505114529 26 134 0.0 0.0 0.00 0.00 0.00 83 1018.1
20260505113013 26 138 0.0 0.0 0.00 0.00 0.00 84 1018.0
20260505111512 26 11 0.0 0.0 0.00 0.00 0.00 82 1018.0
20260505101505 27 186 0.0 0.0 0.00 0.00 0.00 83 1017.9
20260505100002 26 268 0.0 0.0 0.00 0.00 0.00 82 1017.7
20260505094607 27 138 0.0 0.0 0.00 0.00 0.00 82 1017.6
20260505093055 27 148 0.0 0.0 0.00 0.00 0.00 81 1017.6
20260505091558 28 330 0.0 0.0 0.00 0.00 0.00 80 1017.4
20260505090055 30 293 0.0 0.0 0.00 0.00 0.00 77 1017.4
20260505084546 30 153 0.0 0.0 0.00 0.00 0.00 76 1017.3
20260505083047 31 0.0 0.0 0.00 0.00 0.00 75 1017.4
20260505081555 31 135 0.0 0.0 0.00 0.00 0.00 75 1017.3
20260505080042 32 282 0.0 0.0 0.00 0.00 0.00 74 1017.4
20260505074547 32 324 0.0 0.0 0.00 0.00 0.00 75 1017.5
20260505073034 32 136 0.0 0.0 0.00 0.00 0.00 73 1017.4
20260505071532 32 358 0.0 0.0 0.00 0.00 0.00 75 1017.2
20260505070027 32 0.0 0.0 0.00 0.00 0.00 76 1017.2
20260505064524 31 23 0.0 0.0 0.00 0.00 0.00 76 1017.1
20260505063028 32 355 0.0 0.0 0.00 0.00 0.00 75 1017.1
20260505061525 34 8 0.0 0.0 0.00 0.00 0.00 71 1016.9
20260505060009 37 137 0.0 0.0 0.00 0.00 0.00 65 1016.7